Shelton, WA

6:07 PM PDT on March 27, 2017 (GMT -0700)
Sanderson

Weather History for KSHN - December, 2012

Change the Weather History Date:

Wednesday, December 19, 2012

  Actual Average Record
Temperature  
Mean Temperature 34 °F -  
Max Temperature 37 °F 43 °F 54 °F (1961)
Min Temperature 32 °F 33 °F 19 °F (1984)
Degree Days  
Heating Degree Days 30    
Moisture  
Dew Point 33 °F    
Average Humidity 97    
Maximum Humidity 100    
Minimum Humidity 86    
Precipitation  
Precipitation 1.91 in - - ()
Sea Level Pressure  
Sea Level Pressure 29.69 in    
Wind  
Wind Speed 5 mph (NNE)    
Max Wind Speed 14 mph    
Max Gust Speed 26 mph    
Visibility 9 miles    
Events Rain , Snow    
Averages and records for this station are not official NWS values.
T = Trace of Precipitation, MM = Missing Value Source: NWS Daily Summary

Daily Weather History Graph

Daily Weather History Graph

Search for Another Location

Airport or City:

Trip Planner

Search our weather history database for the weather conditions in past years. The results will help you decide how hot, cold, wet, or windy it might be!

Date:

Astronomy

Dec. 19, 2012 Rise Set
Actual Time 7:55 AM PST 4:24 PM PST
Civil Twilight 7:19 AM PST 5:00 PM PST
Nautical Twilight 6:40 AM PST 5:39 PM PST
Astronomical Twilight 6:03 AM PST 6:16 PM PST
Moon 11:40 AM PST (12/19) No Moon Set
Length of Visible Light 9h 40m
Length of Day
8h 28m
Waxing Crescent, 46% of the Moon is Illuminated
Dec 19
Waxing Crescent
Dec 19
First Quarter
Dec 28
Full
Jan 4
Last Quarter
Jan 11
New

Hourly Weather History & Observations

Time (PST) Temp. Windchill Dew Point Humidity Pressure Visibility Wind Dir Wind Speed Gust Speed Precip Events Conditions
12:53 AM 34.0 °F 28.0 °F 32.0 °F 92% 29.93 in 9.0 mi SSE 6.9 mph - 0.00 in Snow Light Snow
1:32 AM 33.8 °F 28.6 °F 32.0 °F 93% 29.89 in 9.0 mi ESE 5.8 mph - 0.01 in Snow Light Snow
1:40 AM 33.8 °F 28.6 °F 32.0 °F 93% 29.88 in 9.0 mi ESE 5.8 mph - 0.02 in Snow Light Snow
1:53 AM 33.1 °F 28.7 °F 32.0 °F 96% 29.89 in 9.0 mi ESE 4.6 mph - 0.03 in Snow Light Snow
2:15 AM 33.8 °F 28.6 °F 32.0 °F 93% 29.86 in 9.0 mi East 5.8 mph - 0.02 in Snow Light Snow
2:30 AM 33.8 °F 29.6 °F 32.0 °F 93% 29.85 in 6.0 mi ESE 4.6 mph - 0.04 in Snow Light Snow
2:53 AM 33.1 °F 26.9 °F 32.0 °F 96% 29.85 in 7.0 mi Variable 6.9 mph - 0.06 in Snow Light Snow
3:53 AM 34.0 °F 31.0 °F 33.1 °F 96% 29.82 in 9.0 mi NE 3.5 mph - 0.03 in Snow Light Snow
4:03 AM 33.8 °F - 33.8 °F 100% 29.79 in 9.0 mi Calm Calm - 0.01 in Snow Light Snow
4:24 AM 33.8 °F - 33.8 °F 100% 29.78 in 9.0 mi Calm Calm - 0.04 in Snow Light Snow
4:53 AM 33.1 °F 27.7 °F 32.0 °F 96% 29.78 in 9.0 mi North 5.8 mph - 0.06 in Snow Light Snow
5:26 AM 33.8 °F 28.6 °F 32.0 °F 93% 29.75 in 8.0 mi North 5.8 mph - 0.04 in Snow Light Snow
5:37 AM 33.8 °F 28.6 °F 32.0 °F 93% 29.75 in 7.0 mi NNW 5.8 mph - 0.06 in Snow Light Snow
5:42 AM 33.8 °F 29.6 °F 32.0 °F 93% 29.75 in 6.0 mi North 4.6 mph - 0.07 in Snow Light Snow
5:53 AM 33.1 °F 30.0 °F 32.0 °F 96% 29.77 in 5.0 mi North 3.5 mph - 0.09 in Snow Light Snow
6:12 AM 32.0 °F 27.5 °F 32.0 °F 100% 29.74 in 6.0 mi NNE 4.6 mph - 0.04 in Snow Light Snow
6:24 AM 32.0 °F 28.7 °F 32.0 °F 100% 29.74 in 5.0 mi North 3.5 mph - 0.06 in Snow Light Snow
6:53 AM 33.1 °F - 33.1 °F 100% 29.75 in 6.0 mi Calm Calm - 0.14 in Snow Light Snow
7:00 AM 33.8 °F - 33.8 °F 100% 29.72 in 9.0 mi Calm Calm - 0.01 in Snow Light Snow
7:13 AM 33.8 °F - 32.0 °F 93% 29.72 in 9.0 mi Calm Calm - 0.02 in Snow Light Snow
7:53 AM 34.0 °F 28.8 °F 33.1 °F 96% 29.72 in 9.0 mi South 5.8 mph - 0.07 in Snow Light Snow
8:53 AM 37.0 °F 30.4 °F 33.1 °F 86% 29.71 in 10.0 mi SSE 9.2 mph - 0.03 in Rain Light Rain
9:53 AM 33.1 °F 28.7 °F 33.1 °F 100% 29.69 in 10.0 mi North 4.6 mph - 0.05 in Rain Light Rain
10:53 AM 37.0 °F 31.6 °F 34.0 °F 89% 29.68 in 10.0 mi SSE 6.9 mph - 0.03 in   Overcast
11:53 AM 37.0 °F 29.3 °F 35.1 °F 93% 29.65 in 10.0 mi SSE 11.5 mph 17.3 mph 0.08 in Rain Light Rain
12:53 PM 37.9 °F 29.6 °F 35.1 °F 89% 29.62 in 10.0 mi SSE 13.8 mph 26.5 mph 0.06 in Rain Light Rain
1:53 PM 33.1 °F - 33.1 °F 100% 29.64 in 9.0 mi Calm Calm - 0.22 in Snow Light Snow
2:21 PM 32.0 °F 27.5 °F 32.0 °F 100% 29.63 in 5.0 mi WNW 4.6 mph - 0.17 in Snow Light Snow
2:53 PM 33.1 °F - 33.1 °F 100% 29.63 in 9.0 mi Calm Calm - 0.36 in Snow Light Snow
3:06 PM 33.8 °F 27.7 °F 32.0 °F 93% 29.63 in 10.0 mi NW 6.9 mph - 0.05 in Rain Rain
3:35 PM 33.8 °F 30.8 °F 33.8 °F 100% 29.62 in 9.0 mi North 3.5 mph - 0.17 in Snow Light Snow
3:53 PM 32.0 °F 26.4 °F 32.0 °F 100% 29.62 in 9.0 mi North 5.8 mph - 0.23 in Snow Light Snow
4:43 PM 33.8 °F 29.6 °F 32.0 °F 93% 29.61 in 10.0 mi NW 4.6 mph - 0.05 in Rain Light Rain
4:53 PM 33.1 °F 26.9 °F 32.0 °F 96% 29.63 in 10.0 mi NNW 6.9 mph - 0.06 in Rain Light Rain
5:28 PM 33.8 °F - 33.8 °F 100% 29.61 in 10.0 mi Calm Calm - 0.01 in   Overcast
5:36 PM 33.8 °F 28.6 °F 33.8 °F 100% 29.60 in 10.0 mi North 5.8 mph - 0.01 in   Overcast
5:44 PM 33.8 °F 30.8 °F 33.8 °F 100% 29.61 in 10.0 mi North 3.5 mph - 0.01 in Rain Light Rain
5:53 PM 33.1 °F 28.7 °F 33.1 °F 100% 29.62 in 10.0 mi NNE 4.6 mph - 0.01 in Rain Light Rain
6:53 PM 34.0 °F - 33.1 °F 96% 29.62 in 10.0 mi Calm Calm - 0.00 in Rain Light Rain
7:51 PM 33.8 °F - 33.8 °F 100% 29.60 in 10.0 mi Calm Calm - 0.00 in Rain Light Rain
7:53 PM 33.1 °F - 33.1 °F 100% 29.62 in 10.0 mi Calm Calm - 0.00 in Rain Light Rain
8:12 PM 33.8 °F - 33.8 °F 100% 29.60 in 10.0 mi Calm Calm - 0.01 in Rain Light Rain
8:19 PM 33.8 °F 30.8 °F 33.8 °F 100% 29.60 in 10.0 mi NNW 3.5 mph - 0.02 in Rain Light Rain
8:53 PM 33.1 °F - 33.1 °F 100% 29.60 in 10.0 mi Calm Calm - 0.05 in Rain Light Rain
9:53 PM 34.0 °F 29.8 °F 33.1 °F 96% 29.60 in 10.0 mi North 4.6 mph - 0.08 in Rain Light Rain
10:35 PM 33.8 °F 28.6 °F 33.8 °F 100% 29.56 in 10.0 mi NNW 5.8 mph - 0.07 in Rain Light Rain
10:44 PM 33.8 °F 27.7 °F 33.8 °F 100% 29.56 in 10.0 mi North 6.9 mph - 0.09 in Rain Light Rain
10:53 PM 33.1 °F - 33.1 °F 100% 29.57 in 10.0 mi Calm Calm - 0.10 in Rain Light Rain
11:42 PM 33.8 °F 26.4 °F 33.8 °F 100% 29.52 in 10.0 mi North 9.2 mph - 0.06 in Rain Light Rain
11:53 PM 33.1 °F 26.1 °F 33.1 °F 100% 29.53 in 10.0 mi North 8.1 mph - 0.07 in Rain Light Rain